• In Latvia
  • List of Countries
  • For 7 days
  • Water Temperature
  • Satellite Maps
  • Weather Map
  • Weather Widgets
  • user-avatar
    Login

    Hourly Weather Quito

    Today, 23 August, Wednesday

    Time Temperature Precipitation Wind Pressure Humidity
    00:00 +16°C° 0 mm 1 mps 622 mmHg 26%
    01:00 +14°C° 0 mm 0 mps 622 mmHg 28%
    02:00 +13°C° 0 mm 0 mps 621 mmHg 30%
    03:00 +13°C° 0 mm 0 mps 621 mmHg 31%
    04:00 +12°C° 0 mm 0 mps 621 mmHg 32%
    05:00 +13°C° 0 mm 0 mps 622 mmHg 32%
    06:00 +13°C° 0 mm 0 mps 622 mmHg 32%
    07:00 +16°C° 0 mm 1 mps 623 mmHg 29%
    08:00 +20°C° 0 mm 1 mps 624 mmHg 24%
    09:00 +24°C° 0 mm 2 mps 625 mmHg 20%
    10:00 +27°C° 0 mm 3 mps 625 mmHg 15%
    11:00 +28°C° 0 mm 3 mps 625 mmHg 13%
    12:00 +29°C° 0 mm 3 mps 625 mmHg 11%
    13:00 +29°C° 0 mm 2 mps 625 mmHg 12%
    14:00 +29°C° 0 mm 2 mps 624 mmHg 12%
    15:00 +29°C° 0 mm 2 mps 624 mmHg 12%
    16:00 +29°C° 0 mm 2 mps 624 mmHg 11%
    17:00 +26°C° 0 mm 1 mps 623 mmHg 14%
    18:00 +24°C° 0 mm 1 mps 622 mmHg 17%
    19:00 +21°C° 0 mm 1 mps 622 mmHg 20%
    20:00 +20°C° 0 mm 1 mps 622 mmHg 20%
    21:00 +20°C° 0 mm 1 mps 622 mmHg 21%
    22:00 +19°C° 0 mm 1 mps 623 mmHg 22%
    23:00 +19°C° 0 mm 1 mps 622 mmHg 23%

    Tomorrow, 24 August, Thursday

    Time Temperature Precipitation Wind Pressure Humidity
    00:00 +18°C° 0 mm 1 mps 622 mmHg 23%
    01:00 +15°C° 0 mm 0 mps 622 mmHg 24%
    02:00 +14°C° 0 mm 0 mps 621 mmHg 26%
    03:00 +14°C° 0 mm 0 mps 621 mmHg 27%
    04:00 +13°C° 0 mm 0 mps 621 mmHg 28%
    05:00 +14°C° 0 mm 0 mps 621 mmHg 28%
    06:00 +15°C° 0 mm 1 mps 622 mmHg 28%
    07:00 +16°C° 0 mm 1 mps 623 mmHg 28%
    08:00 +21°C° 0 mm 1 mps 624 mmHg 23%
    09:00 +25°C° 0 mm 1 mps 625 mmHg 19%
    10:00 +29°C° 0 mm 1 mps 626 mmHg 14%
    11:00 +30°C° 0 mm 1 mps 626 mmHg 13%
    12:00 +31°C° 0 mm 1 mps 626 mmHg 12%
    13:00 +32°C° 0 mm 2 mps 625 mmHg 11%
    14:00 +32°C° 0 mm 2 mps 625 mmHg 11%
    15:00 +31°C° 0 mm 2 mps 624 mmHg 11%
    16:00 +31°C° 0 mm 2 mps 623 mmHg 11%
    17:00 +28°C° 0 mm 1 mps 623 mmHg 14%
    18:00 +25°C° 0 mm 1 mps 622 mmHg 16%
    19:00 +23°C° 0 mm 1 mps 622 mmHg 18%
    20:00 +22°C° 0 mm 1 mps 622 mmHg 19%
    21:00 +21°C° 0 mm 1 mps 622 mmHg 19%
    22:00 +21°C° 0 mm 1 mps 622 mmHg 20%
    23:00 +20°C° 0 mm 1 mps 622 mmHg 21%

    Day after tomorrow, 25 August, Friday

    Time Temperature Precipitation Wind Pressure Humidity
    00:00 +19°C° 0 mm 1 mps 622 mmHg 21%
    01:00 +19°C° 0 mm 1 mps 622 mmHg 22%
    02:00 +18°C° 0 mm 1 mps 621 mmHg 23%
    03:00 +16°C° 0 mm 1 mps 621 mmHg 23%
    04:00 +16°C° 0 mm 1 mps 621 mmHg 24%
    05:00 +16°C° 0 mm 1 mps 621 mmHg 25%
    06:00 +16°C° 0 mm 2 mps 622 mmHg 26%
    07:00 +16°C° 0 mm 2 mps 622 mmHg 27%
    08:00 +20°C° 0 mm 2 mps 623 mmHg 22%
    09:00 +25°C° 0 mm 2 mps 624 mmHg 18%
    10:00 +28°C° 0 mm 2 mps 625 mmHg 13%
    11:00 +30°C° 0 mm 2 mps 625 mmHg 12%
    12:00 +31°C° 0 mm 2 mps 625 mmHg 11%
    13:00 +34°C° 0 mm 2 mps 624 mmHg 9%
    14:00 +32°C° 0 mm 2 mps 624 mmHg 10%
    15:00 +32°C° 0 mm 2 mps 623 mmHg 10%
    16:00 +32°C° 0 mm 2 mps 622 mmHg 10%
    17:00 +29°C° 0 mm 2 mps 622 mmHg 12%
    18:00 +26°C° 0 mm 1 mps 621 mmHg 14%
    19:00 +23°C° 0 mm 1 mps 621 mmHg 16%
    20:00 +23°C° 0 mm 1 mps 621 mmHg 16%
    21:00 +22°C° 0 mm 1 mps 622 mmHg 17%
    22:00 +21°C° 0 mm 1 mps 622 mmHg 17%
    23:00 +20°C° 0 mm 1 mps 622 mmHg 18%

    26 August, Saturday

    Time Temperature Precipitation Wind Pressure Humidity
    00:00 +20°C° 0 mm 1 mps 621 mmHg 19%
    01:00 +19°C° 0 mm 1 mps 621 mmHg 19%
    02:00 +17°C° 0 mm 2 mps 621 mmHg 20%
    03:00 +16°C° 0 mm 2 mps 620 mmHg 20%
    04:00 +16°C° 0 mm 2 mps 620 mmHg 21%
    05:00 +16°C° 0 mm 2 mps 621 mmHg 21%
    06:00 +16°C° 0 mm 1 mps 621 mmHg 21%
    07:00 +16°C° 0 mm 1 mps 621 mmHg 22%
    08:00 +20°C° 0 mm 2 mps 623 mmHg 18%
    09:00 +25°C° 0 mm 2 mps 624 mmHg 14%
    10:00 +29°C° 0 mm 3 mps 625 mmHg 10%
    11:00 +31°C° 0 mm 3 mps 625 mmHg 10%
    12:00 +33°C° 0 mm 3 mps 624 mmHg 9%
    13:00 +35°C° 0 mm 3 mps 624 mmHg 8%
    14:00 +34°C° 0 mm 3 mps 623 mmHg 8%
    15:00 +34°C° 0 mm 2 mps 623 mmHg 8%
    16:00 +34°C° 0 mm 2 mps 622 mmHg 8%
    17:00 +30°C° 0 mm 2 mps 622 mmHg 10%
    18:00 +27°C° 0 mm 1 mps 621 mmHg 11%
    19:00 +24°C° 0 mm 1 mps 621 mmHg 13%
    20:00 +23°C° 0 mm 1 mps 621 mmHg 13%
    21:00 +22°C° 0 mm 1 mps 621 mmHg 14%
    22:00 +22°C° 0 mm 1 mps 621 mmHg 14%
    23:00 +21°C° 0 mm 1 mps 621 mmHg 15%

    27 August, Sunday

    Time Temperature Precipitation Wind Pressure Humidity
    00:00 +20°C° 0 mm 1 mps 620 mmHg 16%
    01:00 +19°C° 0 mm 1 mps 620 mmHg 17%
    02:00 +18°C° 0 mm 1 mps 620 mmHg 18%
    03:00 +16°C° 0 mm 1 mps 620 mmHg 18%
    04:00 +16°C° 0 mm 1 mps 620 mmHg 19%
    05:00 +16°C° 0 mm 1 mps 620 mmHg 19%
    06:00 +16°C° 0 mm 1 mps 621 mmHg 20%
    07:00 +18°C° 0 mm 1 mps 622 mmHg 20%
    08:00 +22°C° 0 mm 1 mps 623 mmHg 17%
    09:00 +25°C° 0 mm 2 mps 624 mmHg 14%
    10:00 +29°C° 0 mm 2 mps 625 mmHg 11%
    11:00 +30°C° 0 mm 2 mps 625 mmHg 10%
    12:00 +33°C° 0 mm 3 mps 624 mmHg 9%
    13:00 +34°C° 0 mm 3 mps 624 mmHg 9%
    14:00 +34°C° 0 mm 3 mps 623 mmHg 9%
    15:00 +34°C° 0 mm 3 mps 623 mmHg 9%
    16:00 +34°C° 0 mm 2 mps 623 mmHg 9%
    17:00 +30°C° 0 mm 2 mps 622 mmHg 11%
    18:00 +27°C° 0 mm 1 mps 622 mmHg 13%
    19:00 +24°C° 0 mm 1 mps 621 mmHg 15%
    20:00 +23°C° 0 mm 1 mps 622 mmHg 16%
    21:00 +23°C° 0 mm 1 mps 622 mmHg 16%
    22:00 +22°C° 0 mm 1 mps 622 mmHg 16%
    23:00 +21°C° 0 mm 1 mps 622 mmHg 18%

    28 August, Monday

    Time Temperature Precipitation Wind Pressure Humidity
    00:00 +20°C° 0 mm 1 mps 621 mmHg 20%
    01:00 +20°C° 0 mm 1 mps 621 mmHg 21%
    02:00 +19°C° 0 mm 1 mps 621 mmHg 25%
    03:00 +19°C° 0 mm 1 mps 621 mmHg 28%
    04:00 +18°C° 0 mm 1 mps 621 mmHg 31%
    05:00 +19°C° 0 mm 1 mps 621 mmHg 33%
    06:00 +19°C° 0 mm 1 mps 622 mmHg 34%
    07:00 +20°C° 0 mm 1 mps 623 mmHg 36%
    08:00 +24°C° 0 mm 1 mps 624 mmHg 30%
    09:00 +28°C° 0 mm 1 mps 625 mmHg 25%
    10:00 +31°C° 0 mm 2 mps 626 mmHg 19%
    11:00 +32°C° 0 mm 2 mps 625 mmHg 17%
    12:00 +34°C° 0 mm 3 mps 625 mmHg 15%
    13:00 +35°C° 0 mm 3 mps 624 mmHg 13%
    14:00 +35°C° 0 mm 3 mps 624 mmHg 12%
    15:00 +35°C° 0 mm 3 mps 623 mmHg 12%
    16:00 +35°C° 0 mm 3 mps 623 mmHg 12%
    17:00 +31°C° 0 mm 2 mps 622 mmHg 14%
    18:00 +28°C° 0 mm 1 mps 622 mmHg 17%
    19:00 +25°C° 0 mm 1 mps 621 mmHg 19%
    20:00 +24°C° 0 mm 1 mps 622 mmHg 20%
    21:00 +21°C° 0 mm 0 mps 622 mmHg 21%
    22:00 +20°C° 0 mm 0 mps 622 mmHg 22%
    23:00 +21°C° 0 mm 1 mps 622 mmHg 27%
    Show more